Location: Killam
(52.7910°N, 111.8608°W)
Time: 12:54:48
(UTC+00:00)

AO-73 - Pass Details

Date: 18 March 2026
Orbit: 514 x 567 km, 97.8° (Epoch: 13 April)

Event Time Altitude Azimuth Distance (km) Brightness Sun altitude
Rises 10:07:24 0° 29° (NNE) 2,665 ? -29.3°
Reaches altitude 10° 10:10:23 10° 55° (NE) 1,762 ? -28.9°
Maximum altitude 10:12:28 14° 89° (E) 1,502 ? -28.7°
Enters shadow 10:13:39 13° 109° (ESE) 1,582 ? -28.6°
